Showing default

LEMUR 2 MARHISYAM, 60536

Orbit data source: Space-Track

LEMUR 2 MARHISYAM, 60536 is a payload satellite owned by Spire (US) in SSO that was launched on Fri, 16 Aug 2024 UTC via an FALCON 9 launch vehicle from the Air Force Western Test Range (AFWTR). Payload-class satellites include a variety of spacecraft equipped with specific instruments for various scientific and technological missions. These include communications satellites like Starlink; space stations such as the ISS; scientific satellites like the Hubble; Earth observation satellites from companies like Planet Labs, Umbra, and HawkEye 360; GPS; miniature CubeSats for education and research; and military/defense satellites.

Loading next visibility...
Identifier
60536, 2024-149BW
Orbit
SSO
Country
Flag of USUS
Related business
Manufacturer
Spire/Glasgow
Mission
Operational Commercial Com/MetRO
Bus & Motor
CUBESAT 3U, Unknown motor
Mass
7.6 kg wet, 7.6 kg dry
Launch date (UTC)
2024-08-16 (2 years ago)
Launch vehicle
FALCON 9
Launch site
Air Force Western Test Range (AFWTR)
Object type
Payload
Rocket body
Debris
Shape & HBR
Box + 2 Pan, 0.5 m
Radar Cross Section
0.063 m², Medium (>0.1 m² and < 1m²)

Expand to show TLE details & history
Last TLE update: 1 day ago

TLE from 1 day ago
0 LEMUR 2 MARHISYAM
1 60536U 24149BW  26236.16670656  .00009154  00000-0  53074-3 0  9997
2 60536  97.6858 319.4841 0001021 177.1015 183.0222 15.12404357110755
Epoch: 2026-08-24T04:00Z
TLE epoch observation values (Epoch: 2026-08-24T04:00:03.446Z)
Latitude
0.00003°
Longitude
-72.98257°
Altitude
532.646 km
Speed
7.596 km/s
True Right ascension
21h 17m 56s
True Declination
0° 00' 00"
Sunlit
Object was in full shadow at epoch
Visualization orbit readout
Latitude
Unknown
Longitude
Unknown
Altitude
Unknown
Speed
Unknown
Apparent Right ascension
Unknown
Apparent Declination
Unknown
Sunlit
N/A
Visualization observer readout
Local Sidereal Time
00:25:12
Azimuth
Unknown
Elevation
Unknown
Doppler factor
Unknown
Orbital elements
Apogee altitude
526.563 km
Perigee altitude
525.153 km
Semi-major axis
6,903.995 km
Eccentricity
0.0001
Inclination
97.6858°
RAAN
319.4841°
Arg. of periapsis
177.1015°
True anomaly
183.02158°
Mean anomaly
183.0222°
Eccentric anomaly
183.02189°
Mean motion
3.78349 °/min
Orbital period
95.15 mins
BSTAR
0.00053074
Loading maneuver chart data...
Computing Atmospheric mass density...
Loading historical data...
Loading historical data...
Loading historical data...
Loading historical data...
Loading historical data...
Loading historical data...
Loading historical data...

Documentation

Showing up to 5 results
|